Regional Weather Roundup
Issued by NWS

Home | Current Version | Previous Version | Text Only | Print | Product List | Glossary On
Versions: 1 2 3 4 5 6 7 8 9 10 11 12 13 14 15 16 17 18 19 20 21 22 23 24 25 26 27 28 29 30 31 32 33 34 35 36 37 38 39 40 41 42 43 44 45 46 47 48 49 50
000
ASUS45 KCYS 261310
RWRWY

WYOMING REGIONAL WEATHER ROUNDUP
NATIONAL WEATHER SERVICE CHEYENNE WY
700 AM MDT SUN MAY 26 2019

NOTE:  "FAIR" INDICATES FEW OR NO CLOUDS BELOW 12,000 FEET
WITH NO SIGNIFICANT WEATHER AND/OR OBSTRUCTIONS TO VISIBILITY.

WYZ001-261400-
...YELLOWSTONE NATIONAL PARK...

CITY           SKY/WX    TMP DP  RH WIND       PRES   REMARKS
LK YELLOWSTONE NOT AVBL
W YELLOWSTONE  NOT AVBL

$$
WYZ002>013-054>058-071-098>099-261400-
...NORTHERN WYOMING...

CITY           SKY/WX    TMP DP  RH WIND       PRES   REMARKS
JACKSON        SUNNY     37  35  92 CALM      30.00S
CODY           MOSUNNY   46  40  79 CALM      29.95R
GREYBULL       MOSUNNY   48  46  93 CALM      29.90R
WORLAND        MOSUNNY   48  45  89 S5        29.92R
SHERIDAN       SUNNY     47  41  80 CALM      29.90R
BUFFALO        MOSUNNY   50  38  63 S9        29.91S
GILLETTE       SUNNY     51  47  86 S18       29.92R
HULETT         FAIR      59  48  67 NW3       29.94R
NEWCASTLE      FAIR      57  46  67 SE9G22    29.97S

$$
WYZ014>020-022>026-101>103-261400-
...CENTRAL WYOMING...

CITY           SKY/WX    TMP DP  RH WIND       PRES   REMARKS
BIG PINEY      MOSUNNY   37  33  85 N7        30.00R WCI  32
PINEDALE       PTSUNNY   36  34  93 NW3       30.01R
DUBOIS         FAIR      37  32  81 NW8       30.00S WCI  31
LANDER         MOSUNNY   41  34  76 S3        29.95R
RIVERTON       MOSUNNY   44  40  85 NE6       29.96R
CASPER         MOSUNNY   44  41  89 CALM      29.97R
DOUGLAS        SUNNY     51  46  83 SE13      29.97S

$$
WYZ021-027>030-104>119-261400-
...SOUTHERN WYOMING...

CITY           SKY/WX    TMP DP  RH WIND       PRES   REMARKS
EVANSTON       CLOUDY    39  34  82 E10       29.94S WCI  32
KEMMERER       SUNNY     41  34  75 NE14      29.97S
FORT BRIDGER   SUNNY     37  37 100 NW3       29.99F
ROCK SPRINGS   CLOUDY    42  32  67 E5        29.96F
DIXON          FAIR      39  30  71 W5        30.00S
RAWLINS        SUNNY     42  32  67 CALM      30.02R
SARATOGA       FAIR      46  27  46 SE13      30.02S
LARAMIE        SUNNY     39  33  79 SW7       30.05S WCI  34
CHEYENNE       CLOUDY    52  51  97 SE13      30.05R
TORRINGTON     MOSUNNY   51  49  92 NW3       29.98R
PINE BLUFFS    CLOUDY    54  54 100 SE13      30.02R

$$




USA.gov is the U.S. government's official web portal to all federal, state and local government web resources and services.